Location: Grandview
(34.8900°N, 117.1058°W)
Time: 04:07:58
(UTC-07:00)

OTV 5 (USA 277) - Pass Details

Date: 09 October 2017
Orbit: 404 x 417 km, 43.0° (Epoch: 07 September)

Event Time Altitude Azimuth Distance (km) Brightness Sun altitude
Rises 20:39:46 0° 268° (W) 2,347 ? -29.2°
Reaches altitude 10° 20:42:02 10° 280° (W) 1,485 ? -29.6°
Enters shadow 20:42:53 15° 288° (WNW) 1,199 ? -29.8°
